Granada, Spain

10:14 AM CEST on July 21, 2017 (GMT +0200)
Granada

Weather History for LEGR - September, 2013

Change the Weather History Date:

Tuesday, September 17, 2013

  Actual Average Record
Temperature  
Mean Temperature 73 °F -  
Max Temperature 88 °F 76 °F 90 °F (2012)
Min Temperature 58 °F 51 °F 46 °F (2006)
Cooling Degree Days 8    
Growing Degree Days 23 (Base 50)    
Moisture  
Dew Point 56 °F    
Average Humidity 54    
Maximum Humidity 88    
Minimum Humidity 26    
Precipitation  
Precipitation 0.00 in - - ()
Sea Level Pressure  
Sea Level Pressure 29.99 in    
Wind  
Wind Speed 3 mph ()    
Max Wind Speed 13 mph    
Max Gust Speed -    
Visibility 7.6 miles    
Events      
Averages and records for this station are not official NWS values.
T = Trace of Precipitation, MM = Missing Value Source: Averaged Metar Reports

Daily Weather History Graph

Daily Weather History Graph

Search for Another Location

Airport or City:

Trip Planner

Search our weather history database for the weather conditions in past years. The results will help you decide how hot, cold, wet, or windy it might be!

Date:

Astronomy

Sep. 17, 2013 Rise Set
Actual Time 7:58 AM CEST 8:19 PM CEST
Civil Twilight 7:32 AM CEST 8:45 PM CEST
Nautical Twilight 7:02 AM CEST 9:16 PM CEST
Astronomical Twilight 6:31 AM CEST 9:47 PM CEST
Moon 6:56 PM CEST (9/17) 5:39 AM CEST (9/17)
Length of Visible Light 13h 12m
Length of Day
12h 20m
Waxing Gibbous, 94% of the Moon is Illuminated
Sep 17
Waxing Gibbous
Sep 19
Full
Sep 27
Last Quarter
Oct 5
New
Oct 12
First Quarter

Hourly Weather History & Observations

Time (CEST) Temp. Heat Index Dew Point Humidity Pressure Visibility Wind Dir Wind Speed Gust Speed Precip Events Conditions
6:00 AM 60.8 °F - 55.4 °F 82% 30.01 in - Calm Calm - N/A   Clear
6:30 AM 60.8 °F - 53.6 °F 77% 30.01 in - Calm Calm - N/A   Clear
7:00 AM 59.0 °F - 53.6 °F 82% 30.01 in - Calm Calm - N/A   Clear
7:30 AM 59.0 °F - 55.4 °F 88% 30.01 in - Calm Calm - N/A   Clear
8:00 AM 58 °F - 52 °F 76% 30.00 in 19 mi Calm Calm - -   Scattered Clouds
8:00 AM 59.0 °F - 53.6 °F 82% 30.01 in 6.2 mi Calm Calm - N/A   Partly Cloudy
8:30 AM 59.0 °F - 53.6 °F 82% 30.04 in 6.2 mi Calm Calm - N/A   Partly Cloudy
9:00 AM 60.8 °F - 55.4 °F 82% 30.04 in 6.2 mi Calm Calm - N/A   Partly Cloudy
10:00 AM 66.2 °F - 59.0 °F 78% 30.04 in - Variable 1.2 mph - N/A   Clear
10:30 AM 68.0 °F - 59.0 °F 73% 30.04 in - Calm Calm - N/A   Clear
11:00 AM 69.8 °F - 57.2 °F 64% 30.04 in - Variable 1.2 mph - N/A   Clear
11:30 AM 73.4 °F - 55.4 °F 53% 30.04 in - Variable 2.3 mph - N/A   Clear
12:00 PM 75.2 °F - 57.2 °F 53% 30.04 in - West 3.5 mph - N/A   Clear
12:30 PM 77.0 °F - 55.4 °F 47% 30.04 in 6.2 mi WNW 5.8 mph - N/A   Partly Cloudy
1:00 PM 78.8 °F - 55.4 °F 44% 30.04 in 6.2 mi WNW 4.6 mph - N/A   Partly Cloudy
1:30 PM 82.4 °F 81.7 °F 55.4 °F 39% 30.01 in 6.2 mi West 4.6 mph - N/A   Partly Cloudy
2:00 PM 83 °F - 54 °F 26% 29.89 in 19 mi West 8.1 mph - -   Scattered Clouds
2:00 PM 82.4 °F 81.7 °F 55.4 °F 39% 30.01 in 6.2 mi West 6.9 mph - N/A   Partly Cloudy
2:30 PM 86.0 °F 84.5 °F 55.4 °F 35% 29.98 in 6.2 mi West 8.1 mph - N/A   Partly Cloudy
3:00 PM 86.0 °F 84.5 °F 55.4 °F 35% 29.98 in 6.2 mi West 8.1 mph - N/A   Partly Cloudy
3:30 PM 86.0 °F 84.5 °F 55.4 °F 35% 29.98 in 6.2 mi WNW 8.1 mph - N/A   Partly Cloudy
4:00 PM 87.8 °F 86.1 °F 55.4 °F 33% 29.98 in 6.2 mi West 8.1 mph - N/A   Partly Cloudy
4:30 PM 87.8 °F 86.1 °F 55.4 °F 33% 29.95 in 6.2 mi WNW 11.5 mph - N/A   Partly Cloudy
5:00 PM 87.8 °F 86.1 °F 55.4 °F 33% 29.95 in 6.2 mi WNW 10.4 mph - N/A   Partly Cloudy
5:30 PM 87.8 °F 86.1 °F 55.4 °F 33% 29.95 in 6.2 mi West 11.5 mph - N/A   Partly Cloudy
6:00 PM 86.0 °F 84.9 °F 57.2 °F 37% 29.95 in 6.2 mi West 12.7 mph - N/A   Partly Cloudy
6:30 PM 84.2 °F 83.5 °F 57.2 °F 40% 29.95 in 6.2 mi West 12.7 mph - N/A   Partly Cloudy
7:00 PM 84.2 °F 83.8 °F 59.0 °F 42% 29.95 in 6.2 mi West 11.5 mph - N/A   Partly Cloudy
7:30 PM 82.4 °F 81.7 °F 55.4 °F 39% 29.98 in 6.2 mi NW 6.9 mph - N/A   Partly Cloudy
8:00 PM 81 °F - 56 °F 32% 29.86 in 19 mi NW 6.9 mph - -   Scattered Clouds
8:00 PM 80.6 °F 80.8 °F 57.2 °F 45% 29.98 in 6.2 mi NNW 6.9 mph - N/A   Partly Cloudy
8:30 PM 78.8 °F - 59.0 °F 51% 29.98 in 6.2 mi West 5.8 mph - N/A   Partly Cloudy
9:00 PM 75.2 °F - 59.0 °F 57% 29.98 in 6.2 mi West 5.8 mph - N/A   Partly Cloudy
9:30 PM 73.4 °F - 59.0 °F 61% 30.01 in 6.2 mi West 8.1 mph - N/A   Partly Cloudy
10:00 PM 73.4 °F - 59.0 °F 61% 30.01 in 6.2 mi West 5.8 mph - N/A   Partly Cloudy
10:30 PM 71.6 °F - 59.0 °F 64% 30.01 in 6.2 mi WSW 4.6 mph - N/A   Partly Cloudy
11:00 PM 71.6 °F - 59.0 °F 64% 30.01 in 6.2 mi West 4.6 mph - N/A   Partly Cloudy